Oceana NAS, VA

5:51 PM EDT on July 17, 2019 (GMT -0400)
Oceana Naval Air Station

Weather History for KNTU - July, 2019

Change the Weather History Date:

Wednesday, July 17, 2019

  Actual Average Record
Temperature  
Mean Temperature 85 °F -  
Max Temperature 93 °F 83 °F 93 °F (2005)
Min Temperature 77 °F 68 °F 64 °F (2000)
Cooling Degree Days 20    
Growing Degree Days 35 (Base 50)    
Moisture  
Dew Point 75 °F    
Average Humidity 71    
Maximum Humidity 88    
Minimum Humidity 57    
Precipitation  
Precipitation 0.00 in - - ()
Sea Level Pressure  
Sea Level Pressure 30.00 in    
Wind  
Wind Speed 9 mph ()    
Max Wind Speed 21 mph    
Max Gust Speed 37 mph    
Visibility 9.1 miles    
Events Rain , Thunderstorm    
Averages and records for this station are not official NWS values.
T = Trace of Precipitation, MM = Missing Value Source: Averaged Metar Reports

Daily Weather History Graph

Daily Weather History Graph

Search for Another Location

Airport or City:

Astronomy

Jul. 17, 2019 Rise Set
Actual Time 5:58 AM EDT 8:22 PM EDT
Civil Twilight 5:28 AM EDT 8:51 PM EDT
Nautical Twilight 4:51 AM EDT 9:28 PM EDT
Astronomical Twilight 4:11 AM EDT 10:08 PM EDT
Moon 9:09 PM EDT 6:28 AM EDT
Length of Visible Light 15h 23m
Length of Day
14h 24m
Waxing Gibbous, 99% of the Moon is Illuminated
Today
Waxing Gibbous
Jul 24
Last Quarter
Jul 31
New
Aug 7
First Quarter
Aug 15
Full

Hourly Weather History & Observations

Time (EDT) Temp. Heat Index Dew Point Humidity Pressure Visibility Wind Dir Wind Speed Gust Speed Precip Events Conditions
12:56 AM 77.0 °F - 73.0 °F 88% 30.07 in 10.0 mi SSW 4.6 mph - N/A   Overcast
1:56 AM 79.0 °F - 73.9 °F 84% 30.06 in 10.0 mi SSW 6.9 mph - N/A   Overcast
2:56 AM 79.0 °F - 73.9 °F 84% 30.05 in 10.0 mi SW 10.4 mph - N/A   Overcast
3:56 AM 79.0 °F - 73.9 °F 84% 30.04 in 10.0 mi SW 9.2 mph - N/A   Overcast
4:56 AM 79.0 °F - 73.9 °F 84% 30.04 in 10.0 mi SW 10.4 mph - N/A   Overcast
5:56 AM 79.0 °F - 73.9 °F 84% 30.05 in 10.0 mi SW 10.4 mph - N/A   Mostly Cloudy
6:56 AM 78.1 °F - 73.9 °F 87% 30.04 in 10.0 mi SW 9.2 mph - N/A   Mostly Cloudy
7:56 AM 80.1 °F 84.5 °F 73.9 °F 81% 30.05 in 10.0 mi SW 9.2 mph - N/A   Mostly Cloudy
8:56 AM 82.0 °F 88.6 °F 75.0 °F 79% 30.06 in 10.0 mi SW 9.2 mph - N/A   Mostly Cloudy
9:56 AM 86.0 °F 96.0 °F 75.9 °F 72% 30.05 in 10.0 mi SW 11.5 mph - N/A   Mostly Cloudy
10:56 AM 88.0 °F 100.2 °F 77.0 °F 70% 30.04 in 10.0 mi SW 11.5 mph - N/A   Mostly Cloudy
11:56 AM 90.0 °F 102.5 °F 77.0 °F 65% 30.03 in 10.0 mi SSW 10.4 mph - N/A   Mostly Cloudy
12:56 PM 91.9 °F 105.9 °F 77.0 °F 62% 30.02 in 10.0 mi SSW 12.7 mph 17.3 mph N/A   Mostly Cloudy
1:56 PM 93.0 °F 106.7 °F 77.0 °F 59% 30.01 in 10.0 mi SW 12.7 mph - N/A   Mostly Cloudy
2:56 PM 93.0 °F 105.3 °F 75.9 °F 57% 29.99 in 10.0 mi SSW 12.7 mph - N/A   Mostly Cloudy
3:28 PM 93.0 °F 106.7 °F 77.0 °F 59% 29.97 in 10.0 mi SW 13.8 mph 18.4 mph N/A Thunderstorm Thunderstorm
3:39 PM 91.9 °F 103.2 °F 75.0 °F 58% 29.96 in 10.0 mi SSW 13.8 mph 23.0 mph N/A Thunderstorm Thunderstorm
3:56 PM 91.0 °F 102.9 °F 75.9 °F 61% 29.97 in 10.0 mi SW 9.2 mph - 0.00 in Rain , Thunderstorm Light Thunderstorms and Rain
4:06 PM 91.0 °F 101.6 °F 75.0 °F 59% 29.96 in 10.0 mi SSW 8.1 mph - 0.00 in Thunderstorm Thunderstorm
4:14 PM 91.0 °F 101.6 °F 75.0 °F 59% 29.96 in 10.0 mi South 9.2 mph - 0.00 in Thunderstorm Thunderstorm
4:36 PM 93.0 °F 105.3 °F 75.9 °F 57% 29.95 in 10.0 mi SSW 12.7 mph 19.6 mph 0.00 in Thunderstorm Thunderstorm
4:56 PM 91.9 °F 103.9 °F 75.9 °F 59% 29.94 in 10.0 mi South 8.1 mph - 0.00 in Thunderstorm Thunderstorm
4:59 PM 91.0 °F 102.9 °F 75.9 °F 61% 29.94 in 10.0 mi SSW 10.4 mph 21.9 mph N/A Thunderstorm Thunderstorm
5:02 PM 88.0 °F 100.2 °F 77.0 °F 70% 29.96 in 1.5 mi South 16.1 mph 27.6 mph 0.08 in Rain , Thunderstorm Light Thunderstorms and Rain
5:05 PM 84.9 °F 96.6 °F 78.1 °F 80% 29.98 in 1.0 mi South 20.7 mph 31.1 mph 0.20 in Rain , Thunderstorm Heavy Thunderstorms and Rain
5:11 PM 81.0 °F 84.4 °F 70.0 °F 69% 29.94 in 4.0 mi South 11.5 mph 36.8 mph 0.32 in Rain , Thunderstorm Heavy Thunderstorms and Rain
5:45 PM 82.9 °F 90.2 °F 75.0 °F 77% 29.94 in 10.0 mi South 4.6 mph - 0.32 in Thunderstorm Thunderstorm